This demonstration page uses our WeatherBlox Daily Observations layout. Learn more.

Left ArrowRight Arrow

Hourly Observations for August 1, 2022

Temp ( °F °C ) Dew Point ( °F °C ) Humidity (%) Winds ( mph kmh ) Pressure ( in mb ) Visibility ( mi km ) Precip ( " mm )
12:52 am 00:52 Clear 73 22.8 71 21.7 94 94 S 8 13 30.00 1016 10 16 0.00 0.00
1:52 am 01:52 Clear 72 22.2 70 21.1 94 94 S 7 11 29.99 1016 10 16 0.00 0.00
2:52 am 02:52 Clear 72 22.2 71 21.7 97 97 SSE 6 9 29.99 1016 10 16 0.00 0.00
3:52 am 03:52 Clear 72 22.2 71 21.7 97 97 S 7 11 29.98 1015 10 16 0.00 0.00
4:52 am 04:52 Clear 72 22.2 70 21.1 94 94 SSE 7 11 29.99 1016 10 16 0.00 0.00
5:52 am 05:52 Clear 72 22.2 71 21.7 97 97 S 6 9 30.00 1016 10 16 0.00 0.00
6:52 am 06:52 Sunny 72 22.2 71 21.7 97 97 SSE 7 11 30.01 1016 8 13 0.00 0.00
7:52 am 07:52 Sunny 75 23.9 72 22.2 90 90 S 8 13 30.01 1016 10 16 0.00 0.00
8:52 am 08:52 Sunny 79 26.1 72 22.2 79 79 SSW 12 19 30.01 1016 10 16 0.00 0.00
9:52 am 09:52 Sunny 85 29.4 70 21.1 61 61 SW 13 20 30.00 1016 10 16 0.00 0.00
10:52 am 10:52 Sunny 91 32.8 67 19.4 45 45 WSW 15 24 30.00 1016 10 16 0.00 0.00
11:52 am 11:52 Sunny 93 33.9 67 19.4 42 42 WSW 15 24 29.99 1016 10 16 0.00 0.00
12:52 pm 12:52 Sunny 95 35 67 19.4 40 40 SW 17 28 29.98 1015 10 16 0.00 0.00
1:52 pm 13:52 Sunny 96 35.6 66 18.9 37 37 WSW 21 33 29.98 1015 10 16 0.00 0.00
2:52 pm 14:52 Sunny 95 35 66 18.9 39 39 SSW 17 28 29.97 1015 10 16 0.00 0.00
3:52 pm 15:52 Sunny 96 35.6 66 18.9 37 37 SW 13 20 29.96 1014 10 16 0.00 0.00
4:52 pm 16:52 Sunny 97 36.1 66 18.9 36 36 WSW 16 26 29.94 1014 10 16 0.00 0.00
5:52 pm 17:52 Sunny 94 34.4 67 19.4 41 41 SW 15 24 29.94 1014 10 16 0.00 0.00
6:52 pm 18:52 Sunny 91 32.8 68 20 47 47 SW 13 20 29.93 1014 10 16 0.00 0.00
7:52 pm 19:52 Sunny 88 31.1 69 20.6 54 54 SSW 9 15 29.93 1014 10 16 0.00 0.00
8:52 pm 20:52 Mostly Clear 85 29.4 67 19.4 55 55 SSW 9 15 29.93 1014 10 16 0.00 0.00
9:52 pm 21:52 Partly Cloudy 83 28.3 67 19.4 59 59 SSW 10 17 29.94 1014 10 16 0.00 0.00
10:52 pm 22:52 Cloudy 82 27.8 67 19.4 60 60 S 8 13 29.95 1014 10 16 0.00 0.00
11:52 pm 23:52 Clear 79 26.1 68 20 69 69 S 10 17 29.96 1015 10 16 0.00 0.00

Powered by AerisWeather